Location: Bonny Doon Airfield
(37.0704°N, 122.1252°W)
Time: 21:38:01
(UTC-07:00)

Vanguard 1 - All Passes

Search period start: 15 July 2018 00:00
Search period end: 25 July 2018 00:00
Orbit: 650 x 3832 km, 34.2° (Epoch: 15 July)

Date Brightness Start Highest point End Pass type
(mag) Time Alt. Az. Time Alt. Az. Time Alt. Az.
15 Jul - 01:32:22 10° WSW 01:36:43 46° SSE 01:41:14 10° E visible
15 Jul - 03:51:56 10° W 03:56:28 63° S 04:03:04 10° ESE visible
15 Jul - 06:11:24 10° W 06:16:54 36° SSW 06:25:52 10° SE daylight
15 Jul - 08:33:47 10° WSW 08:38:41 15° SSW 08:45:04 10° S daylight
15 Jul - 23:33:42 10° SSW 23:37:55 22° SSE 23:41:24 10° ESE night (unlit)
16 Jul - 01:53:10 10° WSW 01:57:34 56° S 02:02:17 10° E visible
16 Jul - 04:12:48 10° W 04:17:22 56° S 04:24:11 10° ESE visible
16 Jul - 06:32:36 10° WSW 06:37:57 28° SSW 06:46:15 10° SSE daylight
16 Jul - 23:53:59 10° SW 23:58:47 30° SSE 00:02:42 10° E night (unlit)
17 Jul - 02:14:02 10° WSW 02:18:25 62° S 02:23:20 10° E visible
17 Jul - 04:33:42 10° W 04:38:18 46° SSW 04:45:10 10° ESE visible
17 Jul - 06:54:08 10° WSW 06:59:03 21° SSW 07:06:08 10° SSE daylight
17 Jul - 21:55:53 10° S 21:59:27 14° SSE 22:02:22 10° SE visible
18 Jul - 00:14:35 10° SW 00:19:38 40° SSE 00:23:46 10° E night (unlit)
18 Jul - 02:34:57 10° W 02:39:18 63° S 02:44:22 10° E visible
18 Jul - 04:54:41 10° W 04:59:14 37° SSW 05:05:59 10° SE visible
18 Jul - 07:16:21 10° WSW 07:20:12 15° SSW 07:25:08 10° S daylight
18 Jul - 22:15:14 10° SSW 22:20:27 21° SSE 22:24:20 10° ESE visible
19 Jul - 00:35:24 10° WSW 00:40:30 50° S 00:44:46 10° E night (unlit)
19 Jul - 02:55:52 10° W 03:00:11 58° S 03:05:23 10° ESE visible
19 Jul - 05:15:48 10° WSW 05:20:11 28° SSW 05:26:30 10° SE visible
19 Jul - 22:35:21 10° SW 22:41:26 28° SSE 22:45:43 10° ESE visible
20 Jul - 00:56:20 10° WSW 01:01:22 59° S 01:05:42 10° E night (unlit)
20 Jul - 03:16:49 10° W 03:21:03 49° SSW 03:26:19 10° ESE visible
20 Jul - 05:37:12 10° WSW 05:41:10 20° SSW 05:46:35 10° SSE daylight
20 Jul - 20:36:43 10° S 20:41:30 15° SSE 20:45:15 10° ESE daylight
20 Jul - 22:55:53 10° SW 23:02:23 37° SSE 23:06:50 10° E visible
21 Jul - 01:17:20 10° W 01:22:14 63° S 01:26:38 10° E night (unlit)
21 Jul - 03:37:47 10° W 03:41:56 39° SSW 03:47:07 10° SE visible
21 Jul - 05:59:13 10° SW 06:02:12 14° SSW 06:05:53 10° S daylight
21 Jul - 20:55:48 10° SSW 21:02:38 21° SSE 21:07:25 10° ESE visible
21 Jul - 23:16:42 10° WSW 23:23:18 47° SSE 23:27:48 10° E visible
22 Jul - 01:38:21 10° W 01:43:07 62° S 01:47:33 10° ESE night (unlit)
22 Jul - 03:58:52 10° W 04:02:47 29° SSW 04:07:43 10° SE visible
22 Jul - 21:15:44 10° SSW 21:23:44 28° SSE 21:28:55 10° ESE visible
22 Jul - 23:37:41 10° WSW 23:44:11 56° S 23:48:42 10° E visible
23 Jul - 01:59:23 10° W 02:03:59 55° S 02:08:26 10° ESE night (unlit)
23 Jul - 04:20:10 10° WSW 04:23:40 21° SSW 04:27:58 10° SSE visible
23 Jul - 19:16:52 10° S 19:23:06 15° SSE 19:27:53 10° ESE daylight
23 Jul - 21:36:09 10° SW 21:44:46 36° SSE 21:50:06 10° E visible
23 Jul - 23:58:47 10° WSW 00:05:06 63° S 00:09:35 10° E visible
24 Jul - 02:20:25 10° W 02:24:49 45° SSW 02:29:14 10° ESE night (unlit)
24 Jul - 04:41:58 10° WSW 04:44:34 14° SSW 04:47:34 10° S visible
24 Jul - 19:35:33 10° SSW 19:44:21 21° SSE 19:50:21 10° ESE daylight
24 Jul - 21:56:56 10° SW 22:05:47 46° SSE 22:11:06 10° E visible
